LEMUR-2-SIERRINI (60579 NORAD) Tracking and Keplerian Element Data

This shows tracking and keplerian element data for the satellite.

Feedback or suggestion? Click here.




ElementValue
Catalog60579
NameLEMUR-2-SIERRINI
Epoch Orbit848
Epoch Day286.76127121
Epoch Year2024
RAAN1.3102
Inclination97.7452
Eccentricity0.0001795
Argument of Perigee37.0792
Mean Anonmoly323.0551
Mean Motion14.93275101
Decay Rate0.00021899
L11 60579U 24149DR 24286.76127121 .00021899 00000+0 20921-2 0 9990
L22 60579 97.7452 1.3102 0001795 37.0792 323.0551 14.93275101 8482



Live tracking and technical data element details for LEMUR-2-SIERRINI (NORAD 60579). LEMUR-2-SIERRINI can be tracked NOW for your location showing map with azimuth and elevation plus other details from your city location.







IsCatalogInMostPopularTable: catalog: 60579, numindb: 4
Update: records affected: 1



GetName: 60579 LEMUR-2-SIERRINI

Hit Count: updated at: Tue, 03 Dec 2024 03:19:26 GMT